Language selection

Features

My Weather Profile Weather Topics  | 

North Channel: Past 24 Hour Conditions

 

Caribou Island

07:00 AM EDT 13 April 2021
Disclaimer

This table is a summary of hourly weather conditions for the past 24 hours.
Please note that these observations might not always be representative of weather conditions over their associated marine area.

Date / Time
(EDT)
Wind(knots) Conditions Visibility(km) Pressure(kPa) Air tempC) Relative humidity(%) Dew pointC)
13 April 2021
7:00 SSW 8 N/A N/A 101.1 3 100 3
6:00 S 11 N/A N/A 101.1 3 99 3
5:00 SSE 10 N/A N/A 101.0 4 99 3
4:00 SSE 11 N/A N/A 100.9 4 100 4
3:00 SSE 11 N/A N/A 100.9 4 99 4
2:00 SE 12 N/A N/A 100.9 4 99 4
1:00 SE 15 N/A N/A 100.9 5 99 4
0:00 SE 15 N/A N/A 100.9 5 99 5
12 April 2021
23:00 SE 20 N/A N/A 100.9 5 99 5
22:00 SE 18 N/A N/A 100.9 5 99 5
21:00 ESE 11 N/A N/A 100.9 4 99 4
20:00 SE 10 N/A N/A 100.8 5 95 4
19:00 ENE 13 N/A N/A 100.8 6 87 4
18:00 ENE 15 N/A N/A 100.7 7 86 5
17:00 NE 15 N/A N/A 100.6 7 84 5
16:00 NE 16 N/A N/A 100.6 7 86 5
15:00 NE 20 N/A N/A 100.6 7 85 5
14:00 NE 19 N/A N/A 100.6 7 88 5
13:00 NE 17 N/A N/A 100.6 7 90 5
12:00 NE 17 N/A N/A 100.6 6 91 5
11:00 NE 18 N/A N/A 100.6 6 95 5
10:00 NE 18 N/A N/A 100.6 5 98 5
9:00 NE 19 N/A N/A 100.5 5 98 5
8:00 NE 21 N/A N/A 100.5 6 99 6
7:00 NE 22 N/A N/A 100.5 6 99 6

Zoom-in to make a selection

Map of Great Lakes - Lake Superior marine weather areas Mid Superior - 45001 East Superior - 45004 West Superior - 45006 Slate Island - 45136 Lake Of the Woods - 45148 Kenora Airport Royal Island Armstrong Airport Caribou Island Marathon Airport Pukaskwa National Park Thunder Bay Airport Welcome Island Little Flatland Island Sault Ste. Marie Airport Wawa Airport
Legend:
buoy Buoy
land station Land Station

Great Lakes - Lake Superior Area

Another Region

What we are doing

Date modified: